Showing default

OPS 1427 (OV3-4), 2201

Orbit data source: Space-Track

OPS 1427 (OV3-4), 2201 is a payload satellite owned by USAF OAR (US) in LEO that was launched on Fri, 10 Jun 1966 UTC via an SCOUT B launch vehicle from the Wallops Island (WLPIS). Payload-class satellites include a variety of spacecraft equipped with specific instruments for various scientific and technological missions. These include communications satellites like Starlink; space stations such as the ISS; scientific satellites like the Hubble; Earth observation satellites from companies like Planet Labs, Umbra, and HawkEye 360; GPS; miniature CubeSats for education and research; and military/defense satellites.

Loading next visibility...
Identifier
2201, 1966-052A
Orbit
LEO
Country
Flag of USUS
Related business
Manufacturer
Space General
Mission
Spacecraft
Bus & Motor
OV3, Unknown motor
Mass
78 kg wet, 78 kg dry
Launch date (UTC)
1966-06-10 (60 years ago)
Launch vehicle
SCOUT B
Launch site
Wallops Island (WLPIS)
Object type
Payload
Rocket body
Debris
Shape & HBR
Unknown
Radar Cross Section
Medium (>0.1 m² and <1 m²)

Expand to show TLE details & history
Last TLE update: 6 hours ago

TLE from 6 hours ago
0 OPS 1427 (OV3-4)
1 02201U 66052A   25354.97696970  .00000068  00000-0  11546-3 0  9990
2 02201  40.9074 358.4505 2237749 256.1710  78.1732 10.10095832179304
Epoch: 2025-12-20T23:26Z
TLE epoch observation values (Epoch: 2025-12-20T23:26:50.182Z)
Latitude
-0.00004°
Longitude
-83.05468°
Altitude
2,696.256 km
Speed
6.617 km/s
True Right ascension
23h 53m 48s
True Declination
0° 00' 00"
Sunlit
Object was in daylight at epoch
Visualization orbit readout
Latitude
Unknown
Longitude
Unknown
Altitude
Unknown
Speed
Unknown
Apparent Right ascension
Unknown
Apparent Declination
Unknown
Sunlit
N/A
Visualization observer readout
Local Sidereal Time
04:47:58
Azimuth
Unknown
Elevation
Unknown
Doppler factor
Unknown
Orbital elements
Apogee altitude
4,686.881 km
Perigee altitude
640.266 km
Semi-major axis
9,041.71 km
Eccentricity
0.22377
Inclination
40.9074°
RAAN
358.4505°
Arg. of periapsis
256.171°
True anomaly
103.89644°
Mean anomaly
78.1732°
Eccentric anomaly
90.99263°
Mean motion
2.52445 °/min
Orbital period
142.61 mins
BSTAR
0.00011546
Loading maneuver chart data...
Computing Atmospheric mass density...
Loading historical data...
Loading historical data...
Loading historical data...
Loading historical data...
Loading historical data...
Loading historical data...
Loading historical data...
Other satellites on launch #52 in the year 1966 (1966-06-10 UTC)

Documentation

Showing up to 5 results
|